Wind_Speed
18 18 18 17 17 16 16 16 17 16 15 15 15 14 14 13 13 12 12 11 11 11 10 9 8 7 7 6 5 4 4 3 2 2 1 0 0 1 1 2 2 2 2
20 20 20 19 18 18 18 17 18 18 18 16 16 16 15 15 14 14 13 13 12 12 11 11 10 9 8 7 7 6 5 4 3 3 2 2 1 2 2 2 2 2 2
21 21 21 21 20 20 19 19 19 19 19 17 16 16 16 16 16 15 15 14 14 13 13 12 11 10 10 9 8 7 6 5 5 4 3 3 3 2 2 3 2 2 2
22 23 23 23 22 22 21 21 21 20 20 19 18 17 17 17 17 17 16 16 15 14 14 14 13 12 11 10 10 9 8 7 6 6 5 5 4 4 3 3 3 3 3
24 24 25 25 25 24 23 23 22 22 21 21 20 19 18 17 17 18 17 17 17 16 15 14 14 13 12 12 11 11 10 9 9 8 7 6 6 5 5 4 4 4 4
27 26 27 27 27 27 26 25 24 24 23 23 22 22 21 20 19 19 19 19 18 18 17 16 16 15 14 14 13 13 12 11 11 10 9 8 7 7 6 6 5 5 5
29 29 29 29 29 29 29 28 27 27 26 25 24 23 23 22 21 21 21 21 20 20 19 18 18 18 17 16 15 15 14 13 13 12 11 10 10 9 8 7 7 7 6
32 32 31 31 32 31 31 30 30 29 28 28 27 26 25 24 23 23 23 22 22 21 21 20 19 19 19 18 18 17 16 15 15 14 14 13 12 11 10 10 9 8 8
33 33 33 33 33 34 33 33 32 31 31 30 30 29 28 28 26 25 25 24 24 23 23 21 21 21 20 20 20 19 19 18 17 16 16 15 14 13 13 12 11 10 10
35 35 35 35 35 35 36 35 35 34 33 33 32 32 31 31 29 27 27 26 26 25 24 24 23 22 22 21 21 21 20 20 19 18 17 17 16 15 15 14 13 13 12
36 37 38 38 37 38 38 38 38 37 36 35 35 34 34 33 32 31 29 28 28 28 26 26 25 24 23 23 22 22 21 21 20 20 19 19 18 17 17 16 15 14 14
38 39 39 40 40 40 40 40 40 40 39 38 37 36 35 35 34 33 32 30 31 30 29 28 27 26 25 24 23 23 22 22 21 21 21 21 20 20 19 18 17 17 16
39 39 40 41 41 41 42 41 41 42 41 40 40 38 38 37 36 35 34 33 33 33 31 30 29 28 27 26 26 25 24 23 23 22 22 22 22 21 20 20 19 18 18
39 39 40 41 42 42 42 43 42 43 43 42 42 41 40 39 38 37 36 35 34 35 34 32 31 30 28 28 27 27 26 25 25 24 24 24 23 23 22 21 21 20 19
40 40 41 42 43 43 44 44 44 44 44 44 44 42 42 41 40 38 38 37 37 36 35 34 33 32 31 30 29 28 28 27 27 26 26 26 25 25 24 23 23 22 21
40 40 41 42 43 44 45 45 45 45 44 45 45 44 44 43 42 41 40 39 38 38 37 36 35 34 33 32 31 30 29 29 28 28 28 28 27 27 26 25 24 24 23
40 40 41 42 44 45 45 46 47 47 46 45 45 46 45 45 44 43 42 42 40 39 39 38 37 36 35 34 33 32 32 31 30 30 30 30 29 29 29 27 26 25 25
40 40 40 41 43 45 45 46 47 48 47 46 46 46 46 46 46 45 45 44 43 41 41 40 40 38 37 37 36 35 34 33 32 32 31 31 31 31 31 30 28 27 26
40 40 41 41 43 44 45 46 47 48 48 47 47 46 47 47 47 46 45 44 42 42 41 41 41 40 38 38 37 36 36 35 34 34 33 32 32 32 32 31 30 29 27
39 40 41 41 42 43 44 46 47 48 48 47 47 47 47 47 47 47 47 45 44 43 42 42 42 41 40 39 38 37 37 36 35 35 34 33 33 33 33 32 32 30 29
38 39 40 40 41 42 44 45 46 47 48 47 47 47 47 48 49 48 48 47 45 44 43 42 42 41 41 41 40 39 38 38 37 36 36 35 34 34 34 33 32 32 31
37 38 39 40 40 40 42 43 45 46 47 47 46 46 47 48 49 48 48 47 46 46 45 43 43 43 42 42 42 41 40 39 38 38 37 36 36 35 35 35 34 33 33
36 37 37 39 40 40 41 43 44 45 46 47 45 46 46 47 48 48 48 47 47 47 45 44 44 44 43 42 42 42 41 40 39 39 37 37 36 36 36 36 36 35 34
35 35 36 38 39 39 40 42 43 44 45 46 46 46 45 45 46 47 48 48 48 47 47 45 45 44 44 43 43 42 42 41 41 40 39 38 37 37 37 37 37 37 36
34 35 36 37 39 39 39 41 41 43 44 46 47 47 47 46 45 47 47 47 48 47 46 45 44 44 43 43 43 42 42 42 42 42 41 39 38 38 38 38 38 38 38
33 34 36 37 38 39 39 40 40 41 43 44 45 45 45 45 45 47 46 46 47 47 46 45 44 44 44 43 44 43 43 43 43 43 42 40 39 39 39 39 39 39 38
Wind_Direction
242 240 239 240 240 239 238 239 240 239 238 238 236 234 232 233 233 229 228 229 228 228 228 227 225 223 222 221 215 213 216 218 225 229 240 256 328 353 1 7 14 23 29
245 242 241 240 240 240 239 240 241 240 239 239 237 236 234 234 235 233 230 230 229 229 231 231 230 230 229 228 224 223 226 230 233 239 249 260 280 295 304 316 334 350 6
248 245 242 241 240 240 241 240 241 240 240 240 239 238 235 234 234 234 233 233 233 232 232 233 232 233 233 232 230 229 232 237 240 243 249 256 266 271 278 288 298 307 323
249 247 245 243 242 241 241 243 242 242 242 241 240 241 238 235 236 237 237 237 237 236 234 234 233 233 234 232 234 236 237 242 244 246 249 252 254 255 260 271 279 285 297
250 248 246 245 244 243 242 242 243 242 242 240 240 240 241 239 238 238 238 238 238 238 237 236 236 236 235 235 237 240 241 244 246 248 249 252 254 254 255 258 265 278 288
251 248 247 246 245 244 243 243 243 243 242 242 240 240 239 239 240 240 240 239 239 239 240 238 237 237 238 239 242 243 243 245 247 250 251 253 254 253 253 256 262 271 279
253 249 247 246 245 245 244 244 243 244 244 243 242 241 240 238 240 242 242 241 241 240 240 240 239 238 239 241 244 245 246 247 247 249 251 252 255 255 255 258 261 266 271
254 251 248 247 245 244 244 244 244 244 244 244 243 242 242 242 241 242 242 243 243 243 241 241 240 240 240 242 244 245 247 248 249 249 250 251 251 254 255 257 260 264 266
256 253 250 249 246 244 243 243 245 245 245 245 245 244 243 243 243 242 243 243 243 243 243 243 242 242 243 244 246 247 249 250 250 250 250 250 251 253 254 256 259 263 264
257 254 252 249 248 246 243 243 244 244 245 246 247 246 244 244 245 245 245 244 243 243 243 244 244 244 245 245 247 248 250 251 250 249 250 252 252 252 254 257 260 264 265
259 256 253 251 249 247 245 244 243 244 245 246 247 246 245 245 245 246 246 245 245 244 244 245 245 245 246 246 246 248 249 249 250 249 250 252 252 252 254 256 260 262 265
261 257 253 252 250 248 246 245 244 244 245 245 245 246 246 245 245 245 246 245 245 244 244 245 245 246 247 248 248 248 248 248 250 250 250 251 253 254 254 255 258 261 263
261 258 254 252 250 248 246 245 244 244 244 244 244 245 245 245 245 244 246 246 245 243 244 245 245 246 246 247 248 248 248 248 249 249 250 251 252 253 254 256 257 260 263
261 259 256 252 251 248 247 246 245 245 244 243 244 245 245 245 245 245 245 246 245 244 244 244 246 246 246 247 248 249 249 249 249 249 249 250 251 252 254 255 257 259 261
262 261 258 254 251 249 248 247 246 246 245 244 245 245 245 245 244 244 245 246 246 245 244 245 245 246 246 247 248 249 249 249 250 250 250 251 251 252 254 255 257 259 261
262 261 259 256 252 250 249 248 247 246 246 245 244 244 245 245 244 244 246 246 246 244 245 246 246 247 247 247 248 248 249 249 250 251 251 251 251 251 252 254 257 258 259
262 261 259 256 253 251 249 248 247 246 245 245 245 245 245 245 244 244 246 246 246 244 245 246 246 246 248 248 248 248 248 249 250 251 252 252 252 251 252 254 258 258 260
263 262 260 257 254 252 250 249 248 246 245 245 246 246 245 245 245 245 245 245 244 244 245 246 246 246 248 248 248 248 248 248 250 251 251 252 253 252 253 254 257 259 260
264 262 261 258 256 252 250 249 248 247 245 245 246 246 246 246 246 246 246 244 243 243 244 245 245 245 246 247 248 248 247 248 249 250 251 252 252 252 253 255 256 259 260
265 263 262 259 256 252 250 249 248 248 246 245 246 246 248 247 246 246 245 244 243 243 243 245 245 245 246 246 247 247 248 248 250 250 251 252 252 253 254 255 256 258 260
266 264 262 259 257 253 250 249 249 247 246 245 246 246 246 246 245 244 244 243 243 243 244 246 246 247 247 246 246 247 248 248 250 251 251 252 252 253 254 254 257 258 259
266 264 262 259 256 254 251 250 250 248 246 246 246 246 245 244 244 244 243 242 241 242 243 245 246 247 247 248 248 248 248 248 248 250 251 252 253 253 254 254 256 258 260
267 265 263 259 256 254 252 251 251 250 247 245 245 244 244 242 242 242 242 241 241 242 244 245 246 246 247 247 248 248 248 247 247 248 250 252 253 252 253 255 256 258 260
269 266 263 261 257 255 253 252 251 250 248 246 245 244 242 242 242 242 242 241 241 242 243 245 245 246 246 247 247 247 247 247 247 247 249 251 251 251 252 254 256 258 261
272 268 264 263 260 257 255 253 252 251 248 246 244 243 242 241 242 242 242 240 240 240 242 243 244 244 245 246 246 246 246 247 248 248 248 249 251 252 252 254 256 258 259
276 272 267 265 261 257 256 254 252 251 248 245 243 243 242 242 242 242 242 241 241 240 241 242 243 244 244 245 246 246 247 247 248 248 247 248 251 253 254 256 257 258 259
Height
5822 5823 5824 5825 5827 5828 5829 5830 5831 5832 5833 5834 5835 5836 5837 5838 5839 5840 5841 5842 5843 5844 5845 5846 5847 5848 5848 5849 5850 5850 5851 5851 5852 5852 5852 5852 5852 5853 5853 5853 5853 5853 5852
5818 5819 5821 5822 5823 5825 5826 5827 5828 5829 5830 5831 5832 5834 5835 5836 5837 5838 5839 5840 5841 5842 5844 5844 5845 5846 5847 5848 5848 5849 5850 5850 5851 5851 5852 5852 5852 5852 5852 5852 5853 5853 5852
5814 5815 5817 5818 5820 5821 5822 5824 5825 5826 5827 5828 5830 5831 5832 5833 5834 5836 5837 5838 5839 5840 5842 5843 5844 5845 5845 5846 5847 5848 5849 5849 5850 5851 5851 5851 5852 5852 5852 5852 5852 5852 5852
5809 5811 5812 5814 5815 5817 5818 5820 5821 5822 5823 5825 5827 5828 5829 5830 5832 5833 5834 5836 5837 5838 5839 5840 5841 5843 5844 5845 5845 5846 5847 5848 5849 5850 5850 5850 5851 5851 5851 5851 5852 5852 5852
5804 5806 5807 5809 5810 5812 5814 5815 5817 5818 5820 5821 5823 5825 5826 5827 5829 5830 5831 5833 5834 5835 5837 5838 5839 5840 5841 5843 5844 5844 5845 5846 5847 5848 5849 5849 5850 5850 5850 5850 5851 5851 5851
5799 5800 5802 5803 5805 5807 5809 5811 5813 5814 5816 5817 5819 5821 5822 5823 5825 5826 5828 5829 5831 5832 5834 5835 5837 5838 5839 5840 5841 5842 5843 5844 5845 5846 5847 5848 5848 5849 5849 5849 5849 5850 5850
5792 5794 5795 5797 5799 5801 5803 5805 5807 5809 5811 5812 5814 5816 5817 5818 5820 5822 5824 5826 5827 5829 5830 5832 5833 5835 5836 5837 5838 5840 5841 5842 5843 5844 5845 5845 5846 5847 5847 5847 5848 5848 5848
5785 5787 5789 5790 5792 5794 5797 5799 5801 5804 5805 5807 5809 5811 5813 5814 5816 5818 5820 5821 5823 5825 5827 5828 5830 5831 5833 5834 5835 5836 5838 5839 5840 5841 5842 5843 5844 5844 5845 5846 5846 5846 5846
5777 5779 5781 5783 5785 5787 5790 5792 5794 5797 5799 5801 5803 5806 5808 5810 5811 5813 5815 5817 5819 5821 5823 5824 5826 5827 5829 5830 5831 5833 5834 5835 5836 5838 5839 5840 5841 5842 5842 5843 5844 5844 5844
5769 5771 5773 5775 5777 5779 5782 5784 5787 5790 5792 5795 5797 5799 5801 5804 5806 5808 5809 5812 5814 5816 5818 5820 5821 5823 5824 5826 5827 5829 5830 5831 5833 5834 5835 5837 5838 5839 5839 5840 5841 5841 5842
5760 5762 5763 5766 5768 5771 5773 5776 5779 5782 5785 5787 5790 5792 5795 5797 5799 5802 5804 5806 5808 5810 5812 5814 5816 5818 5820 5821 5823 5824 5826 5827 5829 5830 5832 5833 5834 5835 5836 5837 5838 5838 5839
5751 5752 5753 5756 5758 5761 5764 5767 5770 5773 5776 5779 5782 5784 5787 5790 5792 5795 5797 5799 5802 5804 5806 5809 5810 5812 5814 5816 5818 5819 5821 5823 5824 5826 5827 5829 5830 5831 5832 5833 5834 5835 5836
5741 5742 5743 5745 5748 5751 5754 5757 5760 5764 5767 5770 5773 5776 5779 5782 5785 5788 5790 5793 5795 5797 5800 5802 5804 5807 5809 5811 5812 5814 5816 5817 5819 5821 5822 5824 5825 5826 5828 5829 5830 5831 5832
5731 5732 5733 5735 5737 5740 5743 5747 5750 5754 5758 5761 5764 5767 5770 5774 5777 5780 5783 5786 5788 5790 5793 5796 5798 5800 5803 5804 5807 5808 5810 5812 5814 5815 5817 5818 5820 5822 5823 5824 5825 5827 5827
5720 5721 5722 5724 5726 5729 5732 5736 5739 5743 5747 5751 5754 5758 5761 5765 5768 5771 5774 5778 5780 5783 5786 5789 5791 5793 5796 5798 5800 5802 5804 5806 5808 5810 5811 5813 5814 5816 5818 5819 5820 5822 5822
5709 5710 5711 5712 5715 5718 5721 5725 5728 5732 5736 5740 5744 5748 5751 5755 5759 5762 5765 5769 5772 5775 5778 5781 5784 5786 5788 5791 5793 5796 5798 5800 5802 5803 5805 5807 5808 5810 5812 5813 5815 5816 5817
5698 5699 5700 5701 5703 5706 5710 5713 5716 5720 5724 5729 5733 5737 5741 5744 5748 5752 5756 5759 5763 5766 5769 5772 5775 5778 5780 5783 5786 5788 5791 5793 5795 5797 5799 5800 5802 5804 5805 5807 5808 5810 5811
5687 5688 5688 5689 5692 5695 5698 5701 5704 5708 5712 5717 5721 5725 5729 5733 5737 5741 5745 5749 5753 5756 5760 5763 5767 5769 5772 5775 5777 5780 5783 5785 5788 5790 5792 5794 5795 5797 5799 5800 5802 5803 5805
5676 5676 5677 5678 5680 5682 5686 5689 5692 5696 5700 5705 5709 5713 5717 5721 5725 5730 5734 5738 5742 5746 5750 5754 5757 5760 5763 5766 5769 5772 5774 5777 5780 5782 5784 5786 5788 5790 5792 5793 5795 5796 5798
5664 5664 5665 5665 5667 5670 5673 5676 5680 5683 5688 5693 5697 5701 5705 5708 5713 5717 5722 5726 5730 5735 5739 5743 5747 5750 5753 5757 5760 5763 5766 5769 5771 5774 5776 5778 5780 5782 5784 5786 5788 5789 5790
5652 5652 5652 5653 5655 5658 5661 5664 5667 5671 5676 5680 5685 5689 5693 5696 5700 5705 5709 5714 5718 5724 5728 5733 5737 5740 5743 5747 5751 5754 5757 5760 5762 5765 5767 5770 5772 5774 5776 5778 5780 5782 5783
5641 5641 5641 5642 5644 5646 5649 5652 5655 5659 5663 5667 5672 5676 5680 5684 5688 5692 5697 5702 5707 5712 5717 5722 5726 5730 5733 5737 5741 5744 5747 5751 5753 5756 5759 5761 5764 5766 5768 5770 5772 5774 5775
5631 5630 5631 5631 5633 5635 5637 5640 5643 5646 5650 5655 5659 5664 5668 5672 5676 5681 5686 5691 5696 5701 5706 5711 5715 5719 5723 5726 5730 5734 5737 5741 5744 5747 5749 5752 5755 5757 5759 5761 5763 5765 5767
5621 5620 5621 5621 5622 5624 5626 5628 5631 5635 5639 5643 5647 5652 5656 5661 5665 5669 5674 5680 5685 5691 5696 5700 5704 5708 5712 5716 5719 5723 5727 5731 5734 5737 5740 5743 5745 5748 5750 5752 5754 5756 5758
5611 5611 5611 5611 5612 5613 5615 5618 5620 5624 5627 5631 5635 5640 5645 5649 5654 5658 5663 5668 5674 5680 5685 5689 5693 5697 5702 5706 5709 5713 5716 5720 5723 5727 5731 5733 5736 5738 5740 5742 5744 5746 5748
5602 5601 5601 5601 5602 5603 5605 5607 5609 5613 5616 5620 5625 5629 5633 5637 5642 5647 5652 5657 5663 5669 5674 5679 5683 5687 5691 5695 5699 5702 5706 5709 5713 5716 5720 5723 5726 5728 5730 5732 5734 5736 5737